FW1924 Weather Reports


Display with metric or nautical units.
time (UTC)temp
F
wind
direction
speed
MPH
gust
MPH
rain 1hr
in
rain 24hr
in
rain mn
in
humidity
%
barometer
mb
20260504081539 54 159 8.0 11.0 0.00 0.00 0.00 35 1001.2
20260504044627 58 248 0.0 3.0 0.00 0.00 0.00 33 1001.4
20260504043036 59 248 3.0 5.0 0.00 0.00 0.00 31 1001.4
20260504041526 59 250 3.0 7.0 0.00 0.00 0.00 31 1001.4
20260504040036 60 252 4.0 7.0 0.00 0.00 0.00 30 1001.5
20260504034511 61 255 4.0 7.0 0.00 0.00 0.00 31 1001.5
20260504033002 61 256 4.0 7.0 0.00 0.00 0.00 30 1001.4
20260504031503 62 254 4.0 7.0 0.00 0.00 0.00 30 1001.4
20260504030003 63 255 3.0 7.0 0.00 0.00 0.00 28 1001.2
20260504024554 64 265 3.0 8.0 0.00 0.00 0.00 27 1001.6
20260504023101 64 275 2.0 7.0 0.00 0.00 0.00 26 1001.4
20260504021550 65 263 3.0 7.0 0.00 0.00 0.00 25 1001.4
20260504020054 66 286 3.0 7.0 0.00 0.00 0.00 25 1001.4
20260504014558 67 295 3.0 7.0 0.00 0.00 0.00 25 1001.4
20260504013035 68 309 2.0 6.0 0.00 0.00 0.00 26 1001.6
20260504011532 69 313 3.0 6.0 0.00 0.00 0.00 24 1001.6
20260504010031 69 315 2.0 6.0 0.00 0.00 0.00 24 1001.8
20260504004541 70 309 3.0 6.0 0.00 0.00 0.00 22 1002.1
20260504003030 70 304 3.0 8.0 0.00 0.00 0.00 23 1002.2
20260504001522 71 346 2.0 8.0 0.00 0.00 0.00 22 1002.2
20260504000014 71 325 3.0 9.0 0.00 0.00 0.00 22 1002.4
20260503234506 72 355 6.0 10.0 0.00 0.00 0.00 19 1002.0
20260503233057 72 337 4.0 13.0 0.00 0.00 0.00 21 1002.2
20260503231549 73 318 6.0 12.0 0.00 0.00 0.00 20 1002.3
20260503230038 73 338 4.0 12.0 0.00 0.00 0.00 19 1002.6
20260503224538 74 351 8.0 14.0 0.00 0.00 0.00 19 1002.8
20260503223030 75 355 7.0 13.0 0.00 0.00 0.00 18 1002.8
20260503221520 77 333 2.0 9.0 0.00 0.00 0.00 17 1003.0
20260503220010 76 309 1.0 5.0 0.00 0.00 0.00 17 1003.4
20260503214508 77 111 1.0 9.0 0.00 0.00 0.00 14 1003.7
20260503213100 77 115 4.0 10.0 0.00 0.00 0.00 14 1003.9
20260503211558 76 143 5.0 10.0 0.00 0.00 0.00 16 1004.2
20260503210011 76 95 4.0 12.0 0.00 0.00 0.00 18 1004.4
20260503204501 75 106 5.0 12.0 0.00 0.00 0.00 16 1004.6
20260503203052 75 142 6.0 12.0 0.00 0.00 0.00 17 1004.8
20260503201544 75 171 5.0 12.0 0.00 0.00 0.00 18 1005.0
20260503200031 76 117 7.0 15.0 0.00 0.00 0.00 16 1005.3
20260503194532 77 119 7.0 16.0 0.00 0.00 0.00 17 1005.3
20260503193034 77 134 7.0 13.0 0.00 0.00 0.00 21 1005.7
20260503191508 78 182 8.0 16.0 0.00 0.00 0.00 17 1005.9
20260503190106 77 166 10.0 17.0 0.00 0.00 0.00 17 1006.1
20260503184546 76 150 9.0 14.0 0.00 0.00 0.00 21 1006.4
20260503183052 75 101 5.0 13.0 0.00 0.00 0.00 22 1006.4
20260503181528 76 118 6.0 15.0 0.00 0.00 0.00 21 1006.8
20260503180032 74 152 5.0 20.0 0.00 0.00 0.00 26 1007.0
20260503174528 74 126 7.0 15.0 0.00 0.00 0.00 21 1007.2
20260503173054 73 158 7.0 14.0 0.00 0.00 0.00 22 1007.4
20260503171536 72 150 7.0 15.0 0.00 0.00 0.00 24 1007.6